Home   Weather   Yazd   Past weeks

Flag for Iran Past Weather in Yazd, Iran — Yesterday and Last 2 Weeks

Now
39 °F

Passing clouds.


Feels Like: 36 °F
Forecast: 33 / 56 °F
Wind: 5 mph from Northwest

Location: Yazd Airport

Current Time: Dec 9, 2016 at 7:23:58 am

Latest Report: Dec 9, 2016 at 7:00 am


Visibility: N/A

Pressure: 30.07 "Hg (25.88 "Hg at 1218m altitude)

Humidity: 42%

Dew Point: 18 °F

Location of YazdLocation

Past Weather in Yazd — Graph

°F

Yazd Temperature Yesterday

Maximum temperature yesterday: 70 °F (at 2:30 pm)
Minimum temperature yesterday: 43 °F (at 2:30 am)
Average temperature yesterday: 54 °F

High & Low Weather Summary for the Past Weeks

 TemperatureHumidityPressure
High82 °F (Dec 6, 12:00 pm)100% (Nov 24, 8:00 pm)30.48 "Hg (Nov 24, 8:00 pm)
Low23 °F (Nov 25, 7:00 am)5% (Dec 6, 12:00 pm)30.01 "Hg (Dec 2, 4:30 pm)
Average52 °F41%30.23 "Hg
* Reported Nov 24 5:30 am — Dec 9 6:00 am, Yazd, Weather by CustomWeather, © 2016

Note: Actual official high and low records may vary slightly from our data, if they occured in-between our weather recording intervals... More about our weather records

Advertising

Yazd Weather History for the Previous 24 Hours

Scroll right to see more
 ConditionsComfort  
Time TempWeatherWind HumidityBarometerVisibility
6:00 am
Fri, Dec 9
41 °FClear.7 mph39%30.07 "Hg10 mi
5:30 am43 °FClear.5 mph36%30.07 "Hg10 mi
4:30 am45 °FClear.7 mph31%30.04 "Hg10 mi
3:30 am45 °FClear.7 mph31%30.04 "Hg10 mi
2:30 am43 °FClear.5 mph34%30.04 "Hg10 mi
1:30 am46 °FClear.5 mph32%30.04 "Hg10 mi
12:30 am46 °FClear.5 mph34%30.04 "Hg10 mi
12:00 am48 °FClear.5 mph32%30.04 "Hg10 mi
11:30 pm
Thu, Dec 8
48 °FClear.5 mph34%30.07 "Hg10 mi
11:00 pm48 °FClear.2 mph34%30.07 "Hg10 mi
10:30 pm50 °FClear.7 mph30%30.07 "Hg10 mi
10:00 pm52 °FClear.9 mph30%30.07 "Hg10 mi
9:30 pm54 °FClear.7 mph28%30.07 "Hg10 mi
9:00 pm54 °FPassing clouds.5 mph30%30.07 "HgN/A
8:30 pm54 °FPassing clouds.7 mph30%30.04 "HgN/A
8:00 pm54 °FClear.7 mph30%30.04 "Hg10 mi
7:30 pm55 °FClear.5 mph31%30.04 "Hg10 mi
7:00 pm57 °FClear.5 mph27%30.04 "Hg10 mi
6:30 pm59 °FPassing clouds.5 mph27%30.04 "HgN/A
6:00 pm59 °FPassing clouds.5 mph27%30.04 "Hg5 mi
5:30 pm63 °FPassing clouds.5 mph24%30.04 "Hg5 mi
5:00 pm64 °FPassing clouds.2 mph22%30.01 "Hg5 mi
4:30 pm66 °FPassing clouds.5 mph21%30.01 "Hg5 mi
4:00 pm70 °FPassing clouds.No wind18%30.04 "Hg5 mi
3:30 pm70 °FPassing clouds.2 mph18%30.04 "Hg5 mi
3:00 pm70 °FPassing clouds.2 mph18%30.04 "Hg5 mi
2:30 pm70 °FPassing clouds.2 mph18%30.04 "HgN/A
1:30 pm68 °FPassing clouds.2 mph20%30.07 "HgN/A
12:30 pm66 °FPassing clouds.2 mph21%30.09 "Hg5 mi
11:30 am63 °FClear.2 mph30%30.15 "Hg5 mi
10:30 am57 °FClear.7 mph39%30.18 "Hg5 mi
10:00 am55 °FSunny.7 mph41%30.18 "Hg10 mi
9:30 am54 °FSunny.5 mph41%30.21 "Hg10 mi
9:00 am52 °FSunny.5 mph44%30.21 "Hg10 mi
8:30 am50 °FPassing clouds.5 mph47%30.21 "Hg5 mi
8:00 am46 °FSunny.5 mph50%30.18 "Hg10 mi
7:30 am45 °FSunny.5 mph53%30.18 "Hg10 mi
7:00 am45 °FClear.5 mph53%30.18 "Hg10 mi
Weather by CustomWeather, © 2016

See weather overviewHow to use our weather pages